Powrót do katalogu

OPTISAT

AktywnyNaukaSSO
NORAD 68418·PAYLOAD·🇬🇷 Greece

Wystrzelony Mar 30, 2026 z Vandenberg Space Force Base

Loading…

Następne Przeloty (najbliższe 24 godziny)

TLE

ŚwieżeSource: Space-Track

Epoka: Sep 14, 2026, 14:43 UTC

1 68418U 26067C   26257.61359582  .00003993  00000-0  19054-3 0  9995
2 68418  97.4684 215.1374 0002648  27.7078 332.4297 15.19647365 25522

Śledź OPTISAT w czasie rzeczywistym z AllMySat

Download on the App Store